Location: Molino di Ancona
(43.6167°N, 13.3667°E)
Time: 02:39:55
(UTC+00:00)

Daily predictions for brighter satellites

Satellite Brightness Start Highest point End
(mag) Time Altitude Azimuth Time Altitude Azimuth Time Altitude Azimuth
CZ-4C R/B 4.5 03:04:55 24° S 03:04:55 24° S 03:07:55 10° SSE
USA 234 4.2 02:55:13 10° ENE 03:01:15 39° SE 03:02:06 37° SSE
FALCON 9 R/B 3.7 03:10:15 44° S 03:10:36 44° SSE 03:25:43 10° E
BREEZE-M DEB (TANK) 4.1 03:22:47 77° NE 03:22:47 77° NE 03:26:35 10° ENE
Cosmos 1850 Rocket 4.5 03:38:26 59° ENE 03:38:26 59° ENE 03:43:34 10° SSE
Cosmos 2263 Rocket 3.4 03:42:25 31° NNE 03:42:25 31° NNE 03:45:18 10° NNE
Cosmos 1092 Rocket 3.8 03:51:23 79° WSW 03:51:23 79° WSW 03:57:26 10° S
Meteor 1-20 Rocket 4.2 04:03:02 68° WNW 04:03:02 68° WNW 04:08:34 10° N
COSMO-SKYMED 1 3.1 04:00:20 10° SSE 04:04:35 58° ENE 04:05:34 45° NNE
Cosmos 1844 Rocket 3.8 04:05:29 10° S 04:10:43 43° ESE 04:15:59 10° NE
Cosmos 1733 Rocket 4.4 04:10:20 10° SSE 04:14:19 38° E 04:18:21 10° NNE
Cosmos 2221 Rocket 3.5 04:21:50 41° N 04:23:23 87° E 04:27:48 10° S
Cosmos 44 3.1 04:23:59 59° NW 04:23:59 59° NW 04:28:13 10° NNE
Cosmos 1428 Rocket 4.4 04:17:59 11° NNW 04:24:09 71° W 04:30:24 10° S
Geosat 4.2 04:20:17 10° SE 04:25:15 67° ENE 04:28:14 24° NNW
CZ-4B R/B 4.3 04:20:26 10° NNE 04:25:52 47° E 04:31:18 10° S
SKYMED 3 4.4 04:24:18 10° S 04:28:37 78° WSW 04:29:55 45° NNW
Cosmos 1110 Rocket 3.9 04:23:59 10° SSW 04:29:10 87° ESE 04:34:22 10° NNE
Cosmos 1943 4.3 04:33:58 26° SW 04:33:58 26° SW 04:37:28 10° SSW
Okean O Rocket 2.3 04:30:25 10° NNE 04:34:46 55° E 04:39:06 10° S
Cosmos 371 Rocket 3.2 04:30:22 10° SSW 04:35:13 82° WNW 04:40:07 10° NNE
ALOS 2.2 04:31:49 10° NNE 04:36:33 86° ESE 04:41:13 10° SSW
Cosmos 2180 Rocket 4.4 04:31:36 10° S 04:37:43 87° E 04:43:56 10° N
USA 234 3.2 04:38:01 10° NE 04:44:29 67° NNW 04:49:29 18° WSW
Cosmos 2026 Rocket 4.3 04:40:42 18° NNW 04:44:55 43° W 04:50:47 10° SSW
ATLAS CENTAUR R/B 2.6 04:42:35 18° N 04:45:04 34° NE 04:48:40 10° ESE
Cosmos 1674 Rocket 4.1 04:40:53 10° N 04:45:10 57° E 04:49:24 10° SSE
PSLV R/B 4.2 04:44:08 10° N 04:48:04 43° WNW 04:51:58 10° SW
NOSS 3-2 (C) 4.5 04:42:46 10° S 04:48:11 46° ESE 04:54:13 10° NE
SJ-12 3.9 04:44:27 10° N 04:48:29 56° WNW 04:52:29 10° SSW
SKYMED 2 3.9 04:48:37 10° S 04:52:44 42° W 04:54:14 31° NW
Cosmos 1536 3.3 04:52:14 10° S 04:56:14 63° E 05:00:16 10° NNE
Cosmos 2279 Rocket 4.0 04:50:47 10° SSW 04:56:50 54° WNW 05:02:56 10° N
Cosmos 1378 Rocket 4.0 04:57:05 10° N 05:01:30 63° E 05:05:54 10° SSE
Cosmos 1500 3.1 04:58:01 10° SSW 05:01:49 65° W 05:05:37 10° N
Orbus 7S? 2.7 05:03:52 41° NW 05:03:54 41° NW 05:06:21 10° NE
GEOS 3 Rocket 3.7 05:00:26 10° SSE 05:05:27 60° WSW 05:09:07 19° NW
PAYLOAD B 4.2 05:00:11 10° N 05:05:39 62° WNW 05:11:07 10° SSW
Cosmos 1515 4.2 05:04:31 28° NW 05:05:46 35° W 05:09:17 10° SSW
Okean 3 4.0 05:06:41 20° NW 05:09:00 36° W 05:12:52 10° SSW
Cosmos 2292 Rocket 4.4 05:02:56 10° N 05:09:17 70° E 05:13:56 10° SSE
Meteor 1-11 Rocket 3.7 05:03:58 10° SSW 05:09:45 82° W 05:15:42 10° N
Meteor 1-5 Rocket 4.3 05:10:04 10° SSW 05:15:55 61° WNW 05:21:39 10° N
BREEZE-M DEB (TANK) 2.3 05:16:42 25° WSW 05:17:27 34° SSW 05:20:30 10° SE
Cosmos 44 Rocket 3.2 05:15:21 10° SW 05:20:15 86° NW 05:25:04 10° NNE
SL-24 R/B 4.1 05:17:39 10° S 05:21:54 60° W 05:26:07 10° NNW
Meteor 2-4 Rocket 4.1 05:17:15 10° NNW 05:22:15 38° W 05:27:10 10° SSW
IRIDIUM 106 4.3 05:18:25 10° N 05:23:39 89° E 05:28:52 10° S
Cosmos 1302 Rocket 4.0 05:18:47 10° SSW 05:24:02 67° WNW 05:29:20 10° NNE
Cosmos 2278 Rocket 3.7 05:19:01 10° S 05:24:16 41° ESE 05:29:33 10° NE
Cosmos 2263 Rocket 3.8 05:24:11 14° NW 05:24:40 14° NW 05:27:33 10° NNW
Cosmos 1066 Rocket 4.4 05:21:45 10° N 05:27:18 75° ENE 05:32:41 10° SSE
Cosmos 304 Rocket 3.8 05:24:12 10° SW 05:28:53 57° WNW 05:33:37 10° NNE
Cosmos 968 Rocket 4.1 05:23:56 10° NNW 05:29:02 57° ENE 05:34:02 10° SE
Helios 1A Rocket 3.4 05:29:03 10° N 05:32:46 36° WNW 05:36:28 10° SW
Cosmos 1908 Rocket 3.5 05:28:24 10° SSW 05:32:52 76° W 05:37:20 10° N
Cosmos 1441 Rocket 3.9 05:29:29 10° S 05:33:23 59° E 05:37:15 10° NNE
NOSS 3-2 (A) 3.5 05:29:51 10° SW 05:35:33 59° NW 05:42:03 10° NNE
AQUARIUS 4.3 05:32:28 10° NNE 05:36:59 84° ESE 05:41:29 10° SSW
FENGYUN 3A 4.3 05:32:54 10° N 05:37:36 32° WNW 05:42:17 10° SW
NOAA 6 4.4 05:33:29 10° N 05:38:14 40° WNW 05:42:59 10° SW
COSMO-SKYMED 1 4.3 05:38:57 10° WSW 05:41:07 13° W 05:42:47 11° WNW
Cosmos 389 Rocket 4.2 05:38:02 10° N 05:41:12 32° ENE 05:44:20 10° SE
Cosmos 1833 Rocket 3.6 05:37:59 10° NNW 05:43:26 47° ENE 05:48:51 10° SE
Cosmos 1666 2.9 05:41:59 10° SSW 05:45:40 48° WNW 05:49:21 10° N
CENTAUR R/B 2.6 05:40:41 10° SSW 05:46:36 86° SE 05:53:36 10° NE
Cosmos 1354 Rocket 4.4 05:42:06 10° NNW 05:47:24 68° ENE 05:52:41 10° SSE
USA 238 DEB 3.9 05:41:45 10° WSW 05:48:12 48° NW 05:54:54 10° NNE
USA 238 3.9 05:41:51 10° WSW 05:48:18 49° NW 05:55:00 10° NNE
Cosmos 1975 4.1 05:46:53 10° SSE 05:50:41 45° E 05:54:31 10° NNE
Cosmos 1733 Rocket 4.3 05:49:11 10° WSW 05:52:17 19° WNW 05:55:25 10° NNW
EP 1 4.4 05:50:04 10° SW 05:53:05 84° ESE 05:55:42 10° NE
EP 3 3.6 05:52:02 10° SW 05:54:08 54° NW 05:56:09 10° NNE
Cosmos 1844 Rocket 3.4 05:49:53 10° WSW 05:54:45 30° NW 05:59:38 10° N
ADEOS Rocket 3.2 05:52:36 10° S 05:59:23 65° WSW 06:05:30 10° NNW
Cosmos 1992 Rocket 4.0 05:55:00 10° SSW 06:00:11 82° WNW 06:05:26 10° NNE
IRS-1C Rocket 4.1 05:55:19 10° N 06:00:31 61° WNW 06:05:40 10° SSW
SMAP 3.2 05:56:41 10° N 06:01:13 52° WNW 06:05:43 10° SSW
